Probability
0 0 0 1 2 2 1 0 0 0 0 0 0 0 0 1 2 6 9 15 22 24 22 20 20 19 15 12 11 11 11 11 8 5 4 3 3 6 9 8 6 4 4 3 3 4 4 3 2
0 0 0 0 1 1 0 0 0 0 0 0 0 0 1 3 4 6 10 16 22 24 23 22 22 20 16 13 11 11 11 9 7 5 5 4 3 4 6 6 4 3 4 4 4 4 3 2 2
0 0 0 0 0 0 0 0 0 0 0 0 0 1 3 5 6 7 9 14 20 24 24 24 25 22 17 14 13 12 11 8 5 4 5 5 3 3 4 5 4 4 4 4 4 3 2 2 2
0 0 0 0 0 0 1 1 0 0 0 1 1 3 5 7 7 7 8 11 18 23 23 24 27 24 19 16 15 14 12 9 6 4 4 6 6 6 6 6 6 5 4 3 3 2 2 3 4
0 0 0 0 0 1 2 2 1 1 1 3 3 4 6 7 7 7 8 10 15 19 20 21 26 28 23 19 18 17 15 13 9 6 6 9 12 12 12 12 11 8 6 4 2 2 3 4 5
0 0 0 0 1 2 2 2 2 3 3 4 4 6 7 7 8 10 10 10 11 15 17 19 22 26 23 20 18 17 17 16 13 11 11 14 16 17 17 16 13 10 7 5 3 3 4 5 6
0 0 0 1 2 2 2 2 3 4 3 3 4 6 8 10 11 13 13 11 10 14 17 16 15 17 18 17 17 17 18 18 17 15 15 15 16 16 15 13 11 8 5 4 4 5 5 5 6
0 0 0 1 1 1 1 2 3 3 2 3 5 7 10 12 13 15 15 13 13 16 18 15 11 10 12 15 18 19 20 22 21 17 14 13 12 11 10 9 10 8 5 2 3 5 6 7 8
0 0 0 0 0 0 0 1 1 1 3 5 6 8 10 11 11 12 14 14 15 17 18 16 11 10 11 15 19 20 21 23 22 17 14 14 12 9 8 10 15 15 9 4 3 5 6 8 9
0 0 0 0 0 0 0 0 0 1 4 6 8 11 12 11 10 10 11 15 17 18 17 14 12 12 13 16 18 18 19 20 18 16 17 20 19 14 12 17 23 22 14 7 5 6 6 8 10
0 0 0 0 0 0 0 0 0 2 5 8 10 13 14 13 11 9 10 15 18 18 16 13 14 14 13 16 19 17 17 16 14 15 19 23 25 23 20 23 27 26 19 13 11 11 9 8 9
0 0 0 0 0 0 0 0 1 3 6 8 10 11 13 14 12 10 11 16 19 20 19 18 18 17 16 18 20 19 16 14 14 17 21 24 26 27 26 25 26 25 22 19 18 15 11 9 10
0 0 0 0 0 0 0 1 1 4 6 8 9 10 11 13 14 13 15 20 24 26 26 25 24 22 21 21 19 18 16 14 16 20 23 23 23 25 25 25 25 23 22 22 20 16 13 12 12
0 0 0 0 0 0 0 1 2 4 7 8 8 9 10 12 14 17 21 29 34 34 33 30 25 24 24 21 17 16 15 16 18 21 21 20 19 20 21 22 22 22 22 22 19 17 16 16 16
0 0 0 0 0 0 0 1 3 6 9 9 8 8 9 10 13 20 29 37 42 42 39 32 25 23 25 22 18 17 17 18 20 21 20 19 18 18 19 17 16 18 20 20 19 19 19 19 18
0 0 0 0 0 0 0 2 6 9 11 9 7 7 9 11 15 24 34 41 44 43 39 33 26 26 28 26 23 22 22 22 22 22 22 21 20 19 18 15 13 15 17 17 17 18 19 19 17
0 0 0 0 0 0 0 4 8 11 10 9 9 10 13 16 20 26 34 40 41 39 37 34 33 33 32 30 28 27 27 27 26 24 23 23 22 20 17 15 14 15 16 15 14 16 18 17 16
0 0 0 0 0 0 2 6 10 10 9 10 13 15 19 21 25 29 35 38 38 37 37 37 38 38 36 32 31 29 29 28 26 23 22 24 24 20 17 15 13 14 16 16 16 16 16 15 15
0 0 0 0 0 1 4 7 9 9 9 11 15 19 23 25 29 33 37 38 37 37 38 37 37 37 36 33 30 28 28 27 24 20 19 23 25 22 17 13 11 12 15 17 17 15 13 13 13
0 0 0 0 1 3 5 6 7 8 9 10 15 20 24 28 32 35 37 37 35 35 35 35 34 34 32 30 28 27 26 25 22 19 18 20 23 21 15 12 12 13 14 15 14 12 10 8 8
0 0 0 0 1 3 5 6 7 7 8 9 12 16 21 26 32 33 34 33 31 30 31 32 33 33 31 28 26 25 24 22 20 19 18 18 19 17 13 11 12 13 13 13 13 11 8 6 4
0 0 0 0 1 2 4 5 6 6 6 7 7 10 14 20 26 29 29 29 27 26 27 30 33 34 32 29 26 25 23 21 19 18 17 17 15 13 11 11 12 12 12 11 11 10 8 5 4
0 0 0 0 1 1 2 3 4 6 8 7 5 5 8 12 19 23 24 24 24 25 25 26 31 33 32 29 27 26 23 21 19 18 17 15 14 12 11 11 10 10 10 10 9 9 7 5 4
0 0 0 0 0 1 2 3 4 7 9 8 6 5 6 10 14 17 19 20 22 23 23 23 26 29 29 27 26 25 23 20 19 18 15 12 11 12 10 10 10 10 10 10 8 8 7 6 5
0 0 0 0 0 0 2 5 7 8 7 7 6 7 8 10 12 14 16 19 21 21 21 22 23 24 24 22 23 24 22 19 18 17 13 9 9 11 10 10 10 11 11 10 9 9 9 8 7
0 0 0 0 0 0 3 8 10 8 6 5 6 9 11 12 13 14 16 19 20 19 20 20 21 22 21 19 21 22 21 18 18 17 12 8 8 9 10 10 10 10 9 8 8 8 8 8 7
0 0 0 0 0 0 3 9 12 10 7 6 7 10 13 14 14 15 17 19 19 18 19 19 20 22 21 19 20 20 18 15 15 15 11 7 7 8 9 10 10 8 6 6 5 6 6 6 6
0 0 0 0 0 0 2 7 10 11 9 8 8 10 12 13 13 14 17 18 18 18 19 19 20 20 20 19 18 16 14 12 12 12 11 9 9 9 9 10 9 7 5 5 4 4 5 5 4
0 0 0 0 0 0 2 6 10 11 10 10 9 8 9 8 9 11 14 17 18 18 19 18 18 18 17 17 16 14 12 11 11 11 11 12 12 11 10 9 8 6 6 6 5 5 5 5 4
0 0 0 1 1 1 2 7 11 11 11 11 8 6 6 5 5 7 11 15 17 17 17 17 18 17 16 16 16 14 13 11 11 11 11 12 13 11 10 9 7 6 6 6 6 6 6 6 5
Wind_Speed
8 10 9 7 7 6 4 2 6 9 9 9 8 8 10 12 10 8 7 9 13 14 14 13 12 11 9 8 8 7 8 8 7 7 7 7 7 7 7 6 6 6 6 6 6 5 5 4 4
9 11 9 6 6 5 1 5 8 9 8 6 7 7 10 11 10 9 8 8 12 13 13 12 12 10 9 8 7 7 7 8 7 7 7 7 6 6 6 6 5 5 5 6 5 4 4 3 3
11 14 8 7 7 3 3 7 7 7 6 6 7 8 10 9 9 8 7 8 11 12 13 13 12 10 9 8 7 7 7 7 7 6 7 6 6 6 6 6 5 5 5 5 4 4 4 3 3
8 8 7 7 7 2 3 6 6 5 6 6 6 8 9 8 7 8 7 8 11 13 13 12 12 10 8 7 7 7 7 7 7 6 6 6 6 6 6 6 5 5 4 4 4 4 4 4 4
10 8 8 8 7 2 5 6 5 5 5 5 7 10 9 9 8 8 6 8 11 13 13 12 11 10 8 7 7 7 7 6 6 6 6 6 6 6 6 6 5 5 4 4 4 4 4 4 5
8 8 7 8 5 2 6 6 5 4 5 6 7 10 9 8 8 6 6 7 10 12 12 11 11 10 8 8 7 7 6 6 5 5 6 6 6 6 6 6 6 6 5 5 5 5 5 5 6
10 8 9 10 6 3 5 5 4 4 7 6 5 8 8 8 7 5 6 7 11 11 9 9 8 8 8 8 8 7 6 6 6 5 5 6 7 7 7 7 7 7 6 6 6 6 6 6 7
10 8 10 7 6 4 4 5 5 7 7 7 6 6 8 8 7 7 6 6 10 9 8 7 7 6 6 6 8 8 7 7 6 6 6 7 7 8 8 8 8 8 8 8 8 8 8 8 8
13 9 7 7 5 4 3 3 5 6 7 7 8 9 10 11 9 7 7 7 8 8 7 6 6 4 3 5 6 7 7 7 7 7 8 7 6 7 7 9 9 10 9 9 9 9 9 9 10
8 7 7 6 5 4 3 3 3 3 4 6 9 9 11 9 8 7 6 6 7 6 5 5 5 3 2 3 4 3 4 5 4 3 4 5 4 4 5 7 10 11 10 10 11 11 10 9 6
9 8 6 5 4 4 4 3 2 2 3 5 7 8 9 8 7 6 5 6 6 5 4 5 4 3 2 2 2 1 1 3 3 2 3 3 2 2 1 2 4 6 8 7 7 8 7 6 5
9 8 5 5 4 4 4 3 4 5 4 6 8 8 9 8 6 5 5 5 5 5 3 4 4 3 2 2 1 1 1 1 1 2 2 2 1 1 1 1 2 3 3 3 3 3 4 5 4
10 7 4 4 3 2 1 2 2 3 5 7 8 8 8 7 6 5 5 5 4 4 3 4 4 3 2 2 0 1 1 0 1 2 1 1 1 1 1 1 2 3 2 3 3 3 4 4 4
9 7 7 6 5 3 1 1 1 2 6 7 7 7 6 6 7 5 5 5 4 4 4 3 3 3 2 1 0 0 1 1 1 1 1 1 1 0 1 2 2 2 2 2 3 3 3 3 3
9 10 11 8 7 4 2 3 1 3 4 6 7 6 6 5 6 5 5 5 4 4 4 2 2 3 2 1 1 1 1 1 0 1 1 1 1 1 2 2 2 2 2 3 3 3 2 3 3
13 13 11 8 7 4 4 5 3 4 4 4 5 5 5 5 5 6 6 5 4 4 3 2 1 2 2 1 1 1 1 1 1 0 1 1 1 2 2 2 2 2 2 2 2 2 2 3 3
12 11 12 8 7 5 6 4 5 5 4 4 5 5 5 5 5 6 6 5 4 4 3 2 2 2 1 0 0 1 1 1 1 1 1 1 1 2 2 2 2 3 2 2 3 2 2 2 3
10 10 10 7 5 6 6 3 5 5 3 4 4 5 5 5 5 6 5 4 4 3 3 2 1 1 1 0 0 1 1 1 0 1 1 1 1 2 2 2 3 3 2 2 2 2 2 2 2
12 11 12 7 4 6 5 4 4 6 4 3 4 4 5 5 6 6 4 4 3 3 2 2 1 1 0 0 1 1 1 1 1 1 1 1 2 2 2 3 3 3 3 3 3 3 3 3 2
13 12 12 7 4 4 6 6 5 5 5 2 3 4 4 5 5 5 4 4 3 3 2 2 2 1 1 0 1 2 2 2 2 1 1 2 2 2 3 2 3 3 3 3 3 3 3 3 3
13 11 10 10 8 8 9 8 5 4 6 5 3 3 4 4 4 3 3 2 2 2 2 2 2 1 1 1 1 1 2 2 1 1 1 1 2 3 3 3 3 3 3 3 3 4 4 3 3
12 10 10 11 9 9 10 6 5 7 6 7 5 4 3 4 4 3 2 2 2 2 2 2 2 1 1 1 2 2 2 3 2 2 1 2 3 3 3 3 4 3 3 3 4 4 3 4 4
11 10 11 12 12 12 8 6 4 7 6 6 5 3 2 3 4 3 2 1 1 2 2 2 2 0 1 1 2 2 3 2 2 2 2 3 3 3 4 3 3 3 3 3 4 3 4 3 4
10 11 12 12 10 11 8 7 3 3 5 6 6 5 3 3 3 3 3 2 1 2 2 2 1 0 1 2 2 2 2 3 3 3 3 3 2 3 3 3 3 3 3 4 4 4 5 4 4
9 9 8 7 7 7 7 5 2 4 4 5 6 5 4 3 3 3 3 3 2 1 1 1 1 0 1 1 2 2 3 3 3 3 3 3 3 3 2 3 3 3 3 4 4 4 5 5 5
8 9 8 8 8 7 5 1 4 6 5 4 5 5 4 3 2 2 2 2 1 1 1 1 1 1 1 1 2 2 2 2 2 3 3 3 3 3 3 3 4 4 4 4 3 4 5 4 5
9 8 9 8 11 9 3 3 4 5 5 3 4 5 4 3 2 2 2 2 1 1 1 1 1 1 1 2 2 2 2 3 3 2 3 3 3 4 3 3 3 3 4 4 3 3 4 4 4
9 6 5 6 6 8 5 1 4 4 3 3 3 4 4 3 3 2 1 1 1 1 1 1 1 0 1 1 2 2 2 2 2 3 3 3 4 3 3 3 3 3 4 4 3 3 3 3 3
6 6 6 6 6 7 6 1 6 5 4 3 3 4 4 3 3 2 2 2 2 2 2 1 1 1 1 1 2 2 2 3 3 3 3 3 3 3 4 3 3 3 3 2 2 3 3 4 3
5 5 5 5 6 7 6 1 6 7 5 5 4 4 4 3 3 3 3 3 3 3 3 3 2 2 2 1 1 2 2 3 2 3 3 3 3 3 3 3 3 4 3 2 2 3 3 4 4
Wind_Direction
216 228 227 242 244 240 248 69 64 62 64 54 44 46 54 46 49 87 96 88 100 110 120 118 115 117 120 125 127 130 135 140 141 142 144 141 136 135 132 129 128 129 132 132 131 130 125 121 119
243 238 232 244 253 262 28 64 61 66 66 69 62 61 69 65 67 92 93 95 105 113 120 117 118 119 122 126 131 135 140 144 147 152 152 150 146 144 144 143 142 141 141 144 145 142 139 142 144
254 255 257 247 253 271 40 71 72 74 77 71 65 50 57 66 69 85 99 110 108 110 109 113 119 119 124 130 137 142 144 147 152 153 158 156 154 154 153 153 157 156 155 158 161 160 158 164 175
249 233 235 251 265 277 53 70 73 78 80 77 82 78 75 65 78 96 111 116 110 108 109 116 121 123 126 132 143 147 148 150 157 159 164 163 162 163 166 170 173 173 172 172 177 179 178 183 193
241 256 256 271 274 49 68 58 44 72 79 81 83 91 82 75 80 99 115 111 111 110 114 120 126 128 131 134 141 145 148 153 158 164 170 171 172 173 176 181 185 188 190 192 193 194 195 200 204
253 256 275 287 292 47 68 61 38 42 68 66 87 100 92 93 89 102 112 110 101 105 114 123 131 134 137 139 142 147 148 156 163 171 177 181 181 181 184 185 189 194 199 206 209 207 211 216 217
259 283 288 291 302 56 58 58 39 37 52 58 65 100 112 109 111 114 113 111 107 106 116 128 134 139 143 144 149 150 152 162 169 180 189 190 189 192 197 195 199 202 207 214 217 219 222 225 225
265 285 291 301 323 36 52 46 44 48 51 52 56 87 122 117 123 121 118 107 106 109 116 121 123 132 150 154 160 161 163 169 176 188 196 200 200 202 203 202 205 208 211 218 223 226 228 231 229
264 270 292 312 337 17 53 50 60 62 79 66 67 78 111 125 133 136 126 111 105 107 113 116 118 127 148 151 153 167 168 177 187 195 201 203 208 206 202 212 202 208 215 223 228 230 232 235 233
256 273 294 318 342 350 9 24 84 84 85 83 81 95 119 131 133 131 122 113 103 104 107 110 105 112 117 114 134 166 172 169 196 191 191 207 216 218 216 191 200 211 219 227 232 235 236 237 232
267 279 299 319 339 339 340 353 36 88 86 89 109 125 129 128 128 125 118 109 105 105 91 96 96 86 56 81 126 159 168 162 194 194 205 218 220 225 204 184 196 213 220 225 227 229 231 229 227
260 265 291 306 328 312 317 6 20 47 62 95 117 127 131 135 131 120 117 115 115 110 100 100 103 94 83 73 84 137 130 157 175 169 207 223 219 211 183 202 201 216 220 223 224 224 230 234 237
268 268 272 270 274 289 337 43 29 76 88 96 111 122 128 139 133 123 108 98 97 94 84 68 74 90 85 73 45 69 50 198 170 156 179 218 231 220 204 224 222 230 220 218 238 237 237 240 238
283 287 273 255 249 235 199 241 253 130 110 113 119 126 135 134 132 122 106 98 91 82 71 68 92 99 91 93 348 7 194 163 154 134 148 228 243 252 253 239 244 243 231 227 234 247 238 238 246
271 267 260 244 240 225 218 243 190 102 115 129 132 133 134 123 118 112 106 100 93 86 77 65 98 93 94 89 298 350 325 41 77 146 182 228 266 265 266 250 247 254 244 230 230 244 249 240 242
265 258 258 234 231 229 249 263 135 132 152 150 131 127 124 112 111 105 99 97 97 89 84 66 56 94 97 69 335 342 341 345 320 311 172 196 248 265 269 263 266 268 256 236 228 235 243 247 248
255 261 261 238 211 230 253 263 139 142 169 144 128 129 124 114 108 100 101 98 95 99 103 84 51 83 93 146 153 319 323 326 323 329 335 260 257 272 271 269 270 269 268 259 251 229 242 255 255
271 273 274 270 218 229 246 242 145 151 174 150 133 130 126 117 111 104 105 106 100 99 111 114 104 99 134 195 166 269 297 294 298 303 285 293 266 268 276 259 263 267 264 257 257 247 248 248 249
272 274 277 274 229 243 241 224 183 154 160 158 145 140 131 127 116 108 106 114 112 105 107 130 118 93 98 300 303 285 280 284 281 259 269 273 271 269 269 279 273 266 256 249 248 243 239 236 243
268 269 274 277 262 244 241 234 190 164 158 145 140 140 133 126 118 114 112 110 112 110 108 100 79 64 340 330 283 265 278 272 256 258 258 253 261 264 263 256 266 262 257 251 245 235 244 242 220
268 266 275 282 280 258 245 236 197 170 155 142 148 152 138 137 128 120 119 119 124 115 115 100 92 76 314 305 278 287 283 276 266 279 271 274 274 265 275 266 262 263 254 249 250 234 232 243 235
271 269 272 272 269 266 254 254 190 178 173 158 169 163 146 137 132 133 130 137 132 126 121 113 103 91 286 293 283 288 279 287 290 281 277 280 267 266 267 263 256 255 258 248 252 242 240 237 241
276 284 276 267 267 273 267 268 204 171 172 159 156 157 152 149 140 139 148 124 105 105 104 100 104 80 302 284 265 274 292 299 301 299 282 280 269 258 255 251 251 249 251 251 252 249 235 238 243
275 274 267 257 254 261 257 262 228 162 164 155 161 163 181 151 140 137 136 121 99 81 91 91 97 77 307 293 292 279 289 290 287 291 287 282 281 274 275 271 255 249 247 250 248 245 238 238 243
257 269 274 268 248 257 248 252 127 122 133 140 151 156 156 140 139 124 120 127 121 110 102 115 123 148 290 289 295 289 279 274 269 276 276 280 285 280 277 278 265 256 246 249 247 242 237 234 238
261 269 273 287 293 288 281 261 123 119 121 122 133 131 127 122 112 118 112 114 117 128 113 107 130 215 242 266 272 266 265 277 282 285 296 292 287 283 275 266 260 260 260 261 253 245 237 229 233
258 262 282 279 277 282 285 118 123 125 121 105 105 107 113 118 107 89 104 120 145 146 130 133 161 232 259 267 265 257 263 281 294 295 288 291 287 287 285 278 281 275 267 266 261 251 242 231 232
255 274 287 276 284 292 287 208 139 168 120 87 75 81 65 67 89 79 80 84 83 97 108 133 134 255 274 276 289 292 280 280 292 301 293 301 303 307 301 279 281 280 275 271 263 260 238 229 223
256 267 280 286 286 288 290 19 113 114 107 90 57 62 64 35 24 52 48 50 45 41 32 27 22 309 298 288 285 303 292 286 286 289 293 292 296 303 300 291 285 281 275 275 264 267 253 239 231
255 266 277 286 294 287 289 72 106 114 96 72 54 58 59 33 13 29 36 31 19 22 16 3 346 311 304 297 283 299 302 306 303 299 307 309 298 291 286 279 283 282 281 273 257 255 258 247 238